Qeqertarsuaq

KL  EN  DA
ASIAQ
Weather Now GREENLAND SURVEY
Updated [WGT/WGST] Temperature [°C] Wind [m/s] Air pressure [hPa] Relative humidity [%] Precipitation [mm]
Present Wind chill Speed Max
24.09 02:00-2,9-9,56,6 ⇓9,51017670,0
24.09 01:00-3,7-9,44,9 ⇓8,01018700,0
24.09 00:00-2,7-8,75,8 ⇓9,41019680,0
23.09 23:00-2,2-8,66,6 ⇓9,61019680,0
23.09 22:00-1,4-7,05,5 ⇓7,31020710,0
23.09 21:00-2,1-6,43,4 ⇓5,51020700,0
23.09 20:00-2,0-6,73,9 ⇓6,31020700,0
23.09 19:00-0,6-5,14,2 ⇓6,11021650,0
23.09 18:00-0,3-4,73,9 ⇓6,31021640,0
23.09 17:00-0,0-3,63,1 ⇓5,31021660,0
23.09 16:00-0,0-4,03,5 ⇓5,31021620,0
23.09 15:000,6-2,83,1 ⇓5,31022620,0
23.09 14:000,1-4,13,9 ⇓5,81021620,0
23.09 13:00-0,1-4,74,5 ⇓6,31021620,0
23.09 12:00-0,1-4,94,8 ⇓6,81021650,0
23.09 11:00-0,2-5,25,0 ⇓6,91021640,0
23.09 10:000,1-4,74,7 ⇓7,11021690,0
23.09 09:00-0,3-5,14,7 ⇓7,51020690,0
23.09 08:00-0,4-5,45,0 ⇓7,11020690,0
23.09 07:00-0,2-4,64,1 ⇓5,31020690,0
23.09 06:00-0,2-3,42,7 ⇓4,01019710,0
23.09 05:00-0,1-2,72,1 ⇓3,51019740,0
23.09 04:00-0,4-3,12,2 ⇓4,01019730,0
23.09 03:00-0,4-3,62,5 ⇓4,11018740,0
23.09 02:00-0,3-3,42,5 ⇓4,01018740,0
Position: (69.24417,-53.52886)

[Back]